Overview Statistics Trail Chart Weather Telemetry Raw packets
 

This is the latest recevied weather packets stored in our database for station/object KN1OBI-13. If no packets are shown the sender has not sent any weather packets the latest 10 day(s).

<< 44 45 46 47 48 49 50 >>
Time Temp. Humidity Pressure Rain* Wind** Luminosity Snow
1787942790 28.33° C 66% 995 hPa 0 mm - - -
1787942190 28.33° C 68% 995.1 hPa 0 mm - - -
1787941590 27.78° C 68% 995.1 hPa 0 mm - - -
1787940990 27.78° C 71% 995.1 hPa 0 mm - - -
1787940390 26.67° C 75% 995.4 hPa 0 mm - - -
1787939790 27.22° C 76% 995.3 hPa 0 mm - - -
1787939190 26.67° C 74% 995.3 hPa 0 mm - - -
1787938590 27.22° C 75% 995.2 hPa 0 mm - - -
1787937990 26.67° C 72% 995.3 hPa 0 mm - - -
1787937390 26.67° C 73% 995.4 hPa 0 mm - - -
1787936790 26.67° C 76% 995.8 hPa 0 mm - - -
1787936190 26.67° C 78% 995.5 hPa 0 mm - - -
1787935590 26.67° C 79% 995.7 hPa 0 mm - - -
1787934990 26.11° C 80% 995.7 hPa 0 mm - - -
1787934390 25.56° C 82% 995.8 hPa 0 mm - - -
1787933790 25° C 82% 995.7 hPa 0 mm - - -
1787933190 25° C 81% 995.8 hPa 0 mm - - -
1787932590 25° C 80% 995.9 hPa 0 mm - - -
1787931990 25° C 80% 995.9 hPa 0 mm - - -
1787931390 25° C 82% 996.3 hPa 0 mm - - -
1787930790 25° C 82% 996 hPa 0 mm - - -
1787930190 24.44° C 84% 996.2 hPa 0 mm - - -
1787929590 24.44° C 85% 996 hPa 0 mm - - -
1787928990 24.44° C 85% 996 hPa 0 mm - - -
1787928390 23.89° C 86% 996 hPa 0 mm - - -

* Rain latest hour (hover to see other rain measurements)
** Current wind speed in m/s (hover to see current wind gust speed)